Location: *
(46.0770°N, 1.6444°E)
Time: 00:45:00
(UTC+00:00)

GEOS 3 Rocket - Pass Details

Date: 16 September 2019
Orbit: 790 x 830 km, 115.0° (Epoch: 21 October)

Event Time Altitude Azimuth Distance (km) Brightness Sun altitude
Rises 18:32:43 0° 139° (SE) 3,274 6.3 -5.8°
Reaches altitude 10° 18:34:59 10° 139° (SE) 2,348 5.6 -6.2°
Maximum altitude 18:40:05 89° 52° (NE) 797 3.6 -7.1°
Drops below altitude 10° 18:45:13 10° 322° (NW) 2,367 6.9 -8.0°
Sets 18:47:31 0° 322° (NW) 3,304 7.7 -8.4°
